Home > Time Zones > World Clock > Weather > Japan > Naha > Past weeks

Flag for Japan Weather past 2 weeks in Naha, Okinawa, Japan

Now
63 °F

Sprinkles. Broken clouds.


Feels Like: 63 °F
Forecast: 63 / 66 °F
Wind: 26 mph from North

Location: Naha Airport

Current Time: Dec 20, 2014 at 2:55:30 PM

Latest Report: Dec 20, 2014 at 2:30 PM


Visibility: N/A

Pressure: 30.04 "Hg

Humidity: 73%

Dew point: 54 °F

Location of NahaLocation

Historic Weather in Naha — Graph

°F

Naha temperature yesterday

Maximum temperature yesterday: 68 °F (at 1:30 PM)
Minimum temperature yesterday: 59 °F (at 12:00 AM)
Average temperature yesterday: 63 °F

Past Weeks' High & Low Weather Summary

 TemperatureHumidityPressure
High75 °F (Dec 10, 2:00 PM)94% (Dec 20, 6:30 AM)30.36 "Hg (Dec 20, 6:30 AM)
Low57 °F (Dec 17, 12:30 AM)40% (Dec 14, 11:30 AM)29.95 "Hg (Dec 20, 5:30 AM)
Average64 °F62%30.17 "Hg
* Reported Dec 5 2:00 PM — Dec 20 2:00 PM, Naha, Weather by CustomWeather, © 2014

Note: Actual official high and low records may vary slightly from our data, if they occured in-between our weather recording intervals... More about our weather records

Advertising

Naha weather history for previous 24 hours

 ConditionsComfort  
Time TempWeatherWind HumidityBarometerVisibility
2:00 PM
Dec 20
64 °FSprinkles. Partly sunny.23 mph68%30.04 "HgN/A
1:30 PM63 °FSprinkles. Broken clouds.23 mph73%30.04 "HgN/A
1:00 PM64 °FSprinkles. Broken clouds.25 mph73%30.01 "HgN/A
12:30 PM63 °FSprinkles. Broken clouds.25 mph73%30.07 "HgN/A
12:00 PM63 °FSprinkles. Broken clouds.23 mph77%30.09 "HgN/A
11:30 AM63 °FSprinkles. Broken clouds.24 mph83%30.07 "HgN/A
11:00 AM63 °FSprinkles. Broken clouds.28 mph83%30.07 "HgN/A
10:30 AM63 °FSprinkles. Broken clouds.26 mph83%30.09 "HgN/A
10:00 AM63 °FSprinkles. Broken clouds.26 mph83%30.07 "Hg6 mi
9:30 AM63 °FSprinkles. Broken clouds.25 mph88%30.07 "Hg4 mi
9:00 AM63 °FRain showers. Broken clouds.28 mph88%30.07 "Hg3 mi
8:30 AM63 °FSprinkles. Broken clouds.26 mph88%30.07 "Hg4 mi
8:00 AM63 °FRain showers. Broken clouds.26 mph83%30.07 "Hg3 mi
7:46 AM64 °FRain showers. Broken clouds.29 mph83%30.04 "Hg3 mi
7:30 AM64 °FSprinkles. Broken clouds.29 mph83%30.04 "Hg4 mi
7:00 AM64 °FSprinkles. Passing clouds.16 mph88%30.01 "Hg3 mi
6:30 AM63 °FRain showers. Partly cloudy.14 mph94%30.01 "Hg2 mi
6:00 AM64 °FLots of rain. Partly cloudy.16 mph83%30.01 "Hg1 mi
5:30 AM66 °FSprinkles. Partly cloudy.15 mph78%29.95 "HgN/A
5:00 AM68 °FLight rain. Partly cloudy.17 mph73%29.98 "HgN/A
4:30 AM68 °FLight rain. Passing clouds.16 mph78%29.98 "HgN/A
4:00 AM68 °FScattered showers. Passing clouds.14 mph73%29.98 "HgN/A
3:30 AM66 °FPartly cloudy.15 mph78%29.98 "HgN/A
3:00 AM66 °FPassing clouds.16 mph78%30.01 "HgN/A
2:30 AM66 °FPassing clouds.14 mph78%30.01 "HgN/A
2:00 AM66 °FPartly cloudy.17 mph78%30.04 "HgN/A
1:30 AM66 °FLight rain. Passing clouds.15 mph73%30.04 "HgN/A
1:00 AM64 °FPassing clouds.15 mph83%30.07 "HgN/A
12:30 AM64 °FLight rain. Partly cloudy.15 mph78%30.09 "HgN/A
12:00 AM64 °FLight rain. Passing clouds.13 mph83%30.09 "HgN/A
11:30 PM
Dec 19
64 °FLight rain. Partly cloudy.15 mph78%30.09 "HgN/A
11:00 PM66 °FLight rain. Passing clouds.13 mph73%30.12 "HgN/A
10:30 PM66 °FPassing clouds.13 mph68%30.12 "HgN/A
10:00 PM66 °FPassing clouds.10 mph68%30.12 "HgN/A
9:30 PM64 °FPassing clouds.12 mph73%30.15 "HgN/A
9:00 PM64 °FLight rain. Passing clouds.9 mph73%30.15 "HgN/A
8:30 PM66 °FLight rain. Passing clouds.9 mph64%30.15 "HgN/A
8:00 PM66 °FLight rain. Passing clouds.9 mph64%30.18 "HgN/A
7:30 PM66 °FScattered showers. Passing clouds.9 mph64%30.15 "HgN/A
7:00 PM66 °FLight rain. Passing clouds.9 mph60%30.15 "HgN/A
6:30 PM66 °FLight rain. Passing clouds.10 mph60%30.15 "HgN/A
6:00 PM66 °FLight rain. Passing clouds.8 mph60%30.15 "HgN/A
5:30 PM66 °FPartly sunny.10 mph60%30.15 "HgN/A
5:00 PM66 °FPartly sunny.10 mph56%30.15 "HgN/A
4:30 PM66 °FPartly sunny.10 mph56%30.15 "HgN/A
4:00 PM66 °FPartly sunny.9 mph56%30.15 "HgN/A
3:30 PM66 °FPartly sunny.10 mph56%30.18 "HgN/A
3:00 PM66 °FPartly sunny.12 mph56%30.18 "HgN/A
2:30 PM66 °FPartly sunny.10 mph56%30.18 "HgN/A
2:00 PM66 °FPartly sunny.12 mph56%30.18 "HgN/A
Weather by CustomWeather, © 2014

See weather overviewHow to use our weather pages